Regional Weather Roundup
Issued by NWS

Home | Current Version | Previous Version | Graphics & Text | Print | Product List | Glossary Off
Versions: 1 2 3 4 5 6 7 8 9 10 11 12 13 14 15 16 17 18 19 20 21 22 23 24 25 26 27 28 29 30 31 32 33 34 35 36 37 38 39 40 41 42 43 44 45 46 47 48 49 50

000
ASUS43 KMKX 281520
RWRWI

WISCONSIN REGIONAL WEATHER ROUNDUP
NATIONAL WEATHER SERVICE MILWAUKEE/SULLIVAN WI
900 AM CST SAT FEB 28 2015

NOTE: "FAIR" INDICATES FEW OR NO CLOUDS BELOW 12,000 FEET WITH NO
SIGNIFICANT WEATHER AND/OR OBSTRUCTIONS TO VISIBILITY.

WIZ001-002-006>008-014>016-023>028-281600-
NORTHWEST WISCONSIN

CITY           SKY/WX    TMP DP  RH WIND       PRES   REMARKS
SUPERIOR ARPT  SUNNY      5  -2  72 SW3       30.49S
ASHLAND        SUNNY      8  -2  63 SW12      30.50S WCI  -7
HAYWARD        SUNNY      3  -3  76 S12       30.48S WCI -13
SIREN          SUNNY      6  -1  73 S7        30.50S WCI  -5
CUMBERLAND     MOSUNNY    0  -6  78 S6        30.50F WCI -12
RICE LAKE      MOSUNNY   -1  -5  82 S5        30.54S WCI -11
CHETEK         MOSUNNY    1  -4  78 CALM      30.54S
LADYSMITH      SUNNY      1  -3  81 S6        30.55S WCI -10
EAU CLAIRE     SUNNY      1  -5  75 S7        30.57S WCI -12
MENOMONIE      SUNNY      2  -3  77 S7        30.57S WCI -10
NEW RICHMOND   SUNNY      3  -3  74 S8        30.52S WCI -10
OSCEOLA        SUNNY      3  -3  77 S10       30.55S WCI -12
$$

WIZ003>005-009-010-017-018-281600-
NORTH CENTRAL WISCONSIN

CITY           SKY/WX    TMP DP  RH WIND       PRES   REMARKS
MANITOWISH WTR SUNNY      0  -4  82 S7        30.45F WCI -13
ARBOR VITAE    SUNNY      1  -4  78 S5        30.46S WCI  -8
WOODRUFF       SUNNY      1  -4  78 S5        30.46S WCI  -8
RHINELANDER    SUNNY      0  -5  79 SW8       30.49R WCI -14
EAGLE RIVER    SUNNY      2  -4  78 SW6       30.47R WCI  -9
LAND O LAKES   SUNNY      3  -3  76 SW5       30.46S WCI  -6
PHILLIPS       SUNNY      0  -4  82 S6        30.49R WCI -12
TOMAHAWK       SUNNY      1  -4  79 CALM      30.52R
MEDFORD        SUNNY     -1  -5  83 S6        30.52R WCI -13
MERRILL        SUNNY     -1  -7  74 CALM      30.54S
$$

WIZ029-030-035-036-043>047-281600-
CENTRAL WISCONSIN

CITY           SKY/WX    TMP DP  RH WIND       PRES   REMARKS
WAUSAU         SUNNY     -2  -5  87 S6        30.56R WCI -14
MOSINEE        SUNNY     -2  -8  78 CALM      30.57S
MARSHFIELD     SUNNY     -1  -6  79 SW6       30.56R WCI -13
STEVENS POINT  SUNNY      1  -6  73 SW5       30.60R WCI  -9
WAUPACA        SUNNY      7  -4  61 S3        30.64R
WAUTOMA        SUNNY      4  -7  60 CALM      30.64S
WISC RAPIDS    SUNNY      0  -6  76 SW5       30.61S WCI -10
CAMP DOUGLAS   SUNNY      3  -4  72 S5        30.62R WCI  -6
$$

WIZ011>013-019>022-031-037>040-048>050-281600-
NORTHEAST WISCONSIN

CITY           SKY/WX    TMP DP  RH WIND       PRES   REMARKS
ANTIGO         SUNNY     -2  -5  84 SW5       30.52S WCI -12
SHAWANO        SUNNY      6  -3  65 SW5       30.64R WCI  -3
OCONTO         SUNNY      7  -2  66 W7        30.64S WCI  -5
STURGEON BAY   SUNNY      9  -2  61 SW7       30.64S WCI  -3
GREEN BAY      SUNNY      7  -2  66 SW7       30.65S WCI  -5
MANITOWOC      SUNNY     12   0  58 SW6       30.67R WCI   3
APPLETON       SUNNY      5  -6  61 SW6       30.63R WCI  -6
CLINTONVILLE   SUNNY      5  -4  66 W5        30.63R WCI  -4
OSHKOSH        SUNNY      5  -4  66 SW6       30.65R WCI  -6
$$

WIZ032>034-041-042-053>061-281600-
SOUTHWEST WISCONSIN

CITY           SKY/WX    TMP DP  RH WIND       PRES   REMARKS
LA CROSSE      SUNNY     -2  -9  72 S7        30.65R WCI -15
SPARTA         SUNNY      1  -7  70 CALM      30.63S
VIROQUA        SUNNY      1  -4  77 S7        30.57S WCI -11
BOSCOBEL       SUNNY     -5 -10  79 CALM      30.69R
PRAIRIE DU CHI SUNNY     -9 -15  74 CALM      30.68S
PLATTEVILLE    SUNNY     -3  -7  82 E5        30.64R WCI -14
$$

WIZ056-057-062-063-064-067-068-281600-
SOUTH CENTRAL WISCONSIN

CITY           SKY/WX    TMP DP  RH WIND       PRES   REMARKS
REEDSBURG      SUNNY      1  -6  71 S6        30.64S WCI -10
BARABOO/DELLS  SUNNY      3  -5  69 CALM      30.63R
LONE ROCK      SUNNY     -5 -12  72 E3        30.68R
MINERAL POINT  SUNNY      1  -4  78 S3        30.62R
MADISON        SUNNY      3  -5  69 S7        30.66R WCI  -9
MIDDLETON      SUNNY      6  -4  62 SW5       30.65S WCI  -3
WATERTOWN      SUNNY      4  -4  70 CALM      30.67R
MONROE         SUNNY      3  -2  78 S7        30.64S WCI  -9
JANESVILLE     SUNNY     -2  -8  78 CALM      30.69R
$$

WIZ051-052-058>065-066-070>072-281600-
SOUTHEAST WISCONSIN

CITY           SKY/WX    TMP DP  RH WIND       PRES   REMARKS
MILWAUKEE      MOSUNNY    5  -5  63 S5        30.70R WCI  -4
WAUKESHA       SUNNY      3  -6  66 SW6       30.68R WCI  -8
MILWAUKEE/TIMM SUNNY      7  -6  56 SW5       30.70R WCI  -2
RACINE         SUNNY      3  -5  69 SW6       30.73R WCI  -8
BURLINGTON     SUNNY      0  -6  77 CALM      30.69S
KENOSHA        SUNNY      1  -5  75 W3        30.71R
FOND DU LAC    SUNNY      5  -5  63 S8        30.66R WCI  -8
SHEBOYGAN      SUNNY      6  -3  66 SW5       30.66R WCI  -3
WEST BEND      SUNNY      9  -6  52 W5        30.66R WCI   0
JUNEAU         SUNNY      3  -5  69 SW6       30.67R WCI  -8
$$

LSZ147-162-281600-
LAKE SUPERIOR

STATION/POSITION TIME  TEMP    WIND        PRES    WAVE
                       AIR SEA DIR/SP/G            HT/PER
                 (UTC) (F)     (DEG/KT/KT) (MB)    (FT/S)
DEVILS ISLAND    1500    8     210/  9/ 11 1034.0F
PORT WING        1400    4     170/  8/ 12 1032.2
SAXON HARBOR     1400    5     190/  3/  8 1032.8F
$$

LMZ867-665-643>646-281600-
LAKE MICHIGAN

STATION/POSITION TIME  TEMP    WIND        PRES    WAVE
                       AIR SEA DIR/SP/G            HT/PER
                 (UTC) (F)     (DEG/KT/KT) (MB)    (FT/S)
NORTHPORT PIER   1400    9     250/  5/ 11 1036.6R
KEWAUNEE LAKESHO 1400    4     270/  8/ 10 1036.8R
SHEBOYGAN LAKESH 1500    8     240/  3/  5 1040.5R
PORT WASHINGTON  1440   11     240/  4/  6 1040.0R
MILWAUKEE LAKESH 1500    8     230/  6/  8   N/A
KENOSHA   LAKESH 1500    7     240/  6/  8 1040.3R
$$

TC  - TEMPERATURE IN CELSIUS
VSB - VISIBILITY IN STATUTE MILES
WCI - WIND CHILL INDEX
HX  - HEAT INDEX




USA.gov is the U.S. government's official web portal to all federal, state and local government web resources and services.